Torna al catalogo

STARLINK-11556

AttivoComunicazioniVLEO
NORAD 62838·PAYLOAD·🇺🇸 United States

Lanciato Jan 27, 2025 da Cape Canaveral Space Force Station

Loading…

Prossimi Passaggi (prossime 24 ore)

TLE

AggiornatoSource: CelesTrak SupGP

Epoca: Sep 15, 2026, 02:45 UTC

1 62838C 25019K   26258.11506944 -.00074881  00000+0 -58133-3 0  2587
2 62838  43.0006 243.9798 0001456 262.8561 137.7804 15.70886893    16

Traccia STARLINK-11556 in tempo reale con AllMySat

Download on the App Store